Weather Roundup
Issued by NWS Chicago, IL

Home | Current Version | Previous Version | Graphics & Text | Print | Product List | Glossary On
Versions: 1 2 3 4 5 6 7 8 9 10 11 12 13 14 15 16 17 18 19 20 21 22 23 24 25 26 27 28 29 30 31 32 33 34 35 36 37 38 39 40 41 42 43 44 45 46 47 48 49 50
000
NZUS59 KLOT 230307
HRRLOT

CHICAGO AREA WEATHER ROUNDUP
NATIONAL WEATHER SERVICE CHICAGO/ROMEOVILLE IL
1000 PM CDT WED MAR 22 2017

NOTE: "FAIR" INDICATES FEW OR NO CLOUDS BELOW 12,000 FEET WITH NO
SIGNIFICANT WEATHER AND/OR OBSTRUCTIONS TO VISIBILITY.

* THESE STATIONS ARE NOT UNDER NWS QUALITY CONTROL. THEY ALSO MAY NOT
  REPORT WEATHER SUCH AS PRECIPITATION OR FOG.

ILZ005-006-012>014-019>023-230400-
NORTHEAST ILLINOIS

CITY           SKY/WX    TMP DP  RH WIND       PRES   REMARKS
OHARE          PTCLDY    30  18  60 E7        30.47F WCI  23
MIDWAY         PTCLDY    32  21  64 VRB6      30.49F WCI  26
AURORA         CLEAR     28  18  66 E6        30.47F WCI  22
LANSING*       CLEAR     29  24  80 E3        30.50R
JOLIET*        CLEAR     31  22  69 E8        30.48F WCI  23
WAUKEGAN       CLEAR     22  18  85 CALM      30.48F
DUPAGE AIRPORT CLEAR     27  19  72 E7        30.46F WCI  19
WHEELING       CLEAR     28  19  69 CALM      30.49F
KANKAKEE*      PTCLDY    28  22  76 CALM      30.49S
MORRIS*        CLEAR     28  20  72 E5        30.47F WCI  23
LEWIS AIRPORT* CLEAR     28  23  81 E8        30.48F WCI  20
NORTHERLY ISL    N/A     31  22  69 E7          N/A  WCI  24
$$

WIZ051-052-058>065-066-070>072-230400-
SOUTHEAST WISCONSIN

CITY           SKY/WX    TMP DP  RH WIND       PRES   REMARKS
MILWAUKEE      PTCLDY    27  17  66 CALM      30.49F
KENOSHA*       CLEAR     24  17  74 E3        30.48F
RACINE*        CLEAR     27  16  63 CALM      30.50F
WAUKESHA       CLEAR     23  18  80 E5        30.49S WCI  17
WEST BEND      CLEAR     23  19  86 E3        30.48S
$$

INZ001>003-010>013-019-020-230400-
NORTHWEST INDIANA

CITY           SKY/WX    TMP DP  RH WIND       PRES   REMARKS
GARY*          MOCLDY    32  23  69 E8        30.50F WCI  25
MICHIGAN CITY* NOT AVBL
RENSSELAER*    NOT AVBL
VALPARAISO     CLEAR     28  22  78 NE3       30.49S
$$

LMZ740>746-230400-
SOUTHERN LAKE MICHIGAN

STATION/POSITION TIME  SKY/WX   TEMP WIND        PRES    VSBY
                                AIR  DIR/SP/G
                 (UTC)          (F)  (DEG/KT/KT) (MB)    (MI)
HARRISON CRIB    0240            32  100/  6/  7   N/A
BURNHAM HARBOR   0300            31   90/  6/  7   N/A
CALUMET HARBOR   0242            32   70/  7/  9 1032.0S
BURNS HARBOR     0240            31   90/  8/  9 1032.8F
MICHIGAN CITY    0240            30   60/  9/ 10   N/A
$$

ABBREVIATIONS USED IN REMARKS
   TC - TEMPERATURE IN CELSIUS
  WCI - WIND CHILL INDEX
   HX - HEAT INDEX
  VSB - VISIBILITY
$$




USA.gov is the U.S. government's official web portal to all federal, state and local government web resources and services.